When you browse on this site, cookies collect data to enhance your experience and personalize the content and advertising you see.
Visit our Privacy Policy to learn more. By continuing to use the site, you agree to this use of cookies and data.
  • en Suisse
  • Liste des pays
  • À 7 jours
  • Température de l'eau
  • Carte météo
  • Widgets météo
  • user-avatar
    Se connecter

    Météo par heure à Can Tho

    Ce jour, 24 Septembre, Mardi

    Heure Température Précipitation Vent Pression Humidité
    00:00 +27°C° 0 mm 2 m/s 758 mmHg 91%
    01:00 +27°C° 0 mm 1 m/s 758 mmHg 91%
    02:00 +27°C° 0.1 mm 1 m/s 758 mmHg 92%
    03:00 +27°C° 0.1 mm 1 m/s 758 mmHg 92%
    04:00 +27°C° 0.1 mm 1 m/s 758 mmHg 93%
    05:00 +27°C° 0.2 mm 2 m/s 758 mmHg 91%
    06:00 +27°C° 0.2 mm 2 m/s 759 mmHg 90%
    07:00 +28°C° 0 mm 2 m/s 759 mmHg 89%
    08:00 +30°C° 0.7 mm 3 m/s 759 mmHg 82%
    09:00 +31°C° 0.7 mm 3 m/s 759 mmHg 75%
    10:00 +33°C° 0.7 mm 3 m/s 759 mmHg 67%
    11:00 +34°C° 0 mm 4 m/s 758 mmHg 63%
    12:00 +35°C° 0 mm 4 m/s 758 mmHg 59%
    13:00 +35°C° 0 mm 4 m/s 757 mmHg 55%
    14:00 +35°C° 0.1 mm 4 m/s 757 mmHg 56%
    15:00 +35°C° 0.1 mm 4 m/s 757 mmHg 57%
    16:00 +34°C° 0.1 mm 4 m/s 757 mmHg 58%
    17:00 +33°C° 0 mm 3 m/s 757 mmHg 65%
    18:00 +30°C° 0 mm 3 m/s 757 mmHg 71%
    19:00 +28°C° 0 mm 2 m/s 757 mmHg 77%
    20:00 +28°C° 0 mm 2 m/s 758 mmHg 81%
    21:00 +28°C° 0 mm 2 m/s 758 mmHg 84%
    22:00 +28°C° 0 mm 3 m/s 759 mmHg 87%
    23:00 +28°C° 0.1 mm 3 m/s 758 mmHg 88%

    Demain, 25 Septembre, Mercredi

    Heure Température Précipitation Vent Pression Humidité
    00:00 +28°C° 0.1 mm 3 m/s 758 mmHg 88%
    01:00 +28°C° 0.1 mm 3 m/s 758 mmHg 89%
    02:00 +28°C° 0.1 mm 3 m/s 758 mmHg 89%
    03:00 +27°C° 0.1 mm 3 m/s 758 mmHg 88%
    04:00 +27°C° 0.1 mm 3 m/s 757 mmHg 88%
    05:00 +28°C° 0 mm 3 m/s 758 mmHg 86%
    06:00 +28°C° 0 mm 3 m/s 758 mmHg 85%
    07:00 +28°C° 0 mm 4 m/s 759 mmHg 83%
    08:00 +30°C° 0 mm 4 m/s 759 mmHg 77%
    09:00 +33°C° 0 mm 4 m/s 759 mmHg 70%
    10:00 +34°C° 0 mm 3 m/s 759 mmHg 64%
    11:00 +34°C° 0.1 mm 3 m/s 759 mmHg 62%
    12:00 +35°C° 0.1 mm 3 m/s 758 mmHg 60%
    13:00 +35°C° 0.1 mm 3 m/s 757 mmHg 59%
    14:00 +35°C° 0.4 mm 3 m/s 757 mmHg 60%
    15:00 +35°C° 0.4 mm 3 m/s 757 mmHg 62%
    16:00 +34°C° 0.4 mm 4 m/s 757 mmHg 64%
    17:00 +33°C° 0.2 mm 3 m/s 757 mmHg 70%
    18:00 +31°C° 0.2 mm 3 m/s 758 mmHg 76%
    19:00 +29°C° 0.2 mm 2 m/s 758 mmHg 82%
    20:00 +29°C° 0.1 mm 2 m/s 758 mmHg 84%
    21:00 +28°C° 0.1 mm 2 m/s 759 mmHg 86%
    22:00 +28°C° 0.1 mm 2 m/s 759 mmHg 88%
    23:00 +28°C° 0.3 mm 2 m/s 759 mmHg 90%

    Après-demain, 26 Septembre, Jeudi

    Heure Température Précipitation Vent Pression Humidité
    00:00 +28°C° 0.3 mm 2 m/s 759 mmHg 91%
    01:00 +27°C° 0.3 mm 2 m/s 758 mmHg 92%
    02:00 +27°C° 0 mm 1 m/s 758 mmHg 92%
    03:00 +27°C° 0 mm 1 m/s 758 mmHg 92%
    04:00 +27°C° 0 mm 1 m/s 758 mmHg 92%
    05:00 +27°C° 0.1 mm 1 m/s 758 mmHg 90%
    06:00 +28°C° 0.1 mm 2 m/s 759 mmHg 89%
    07:00 +28°C° 0.1 mm 2 m/s 759 mmHg 87%
    08:00 +30°C° 0 mm 2 m/s 759 mmHg 81%
    09:00 +31°C° 0 mm 2 m/s 760 mmHg 74%
    10:00 +34°C° 0 mm 2 m/s 760 mmHg 68%
    11:00 +34°C° 0.3 mm 2 m/s 759 mmHg 65%
    12:00 +35°C° 0.3 mm 2 m/s 758 mmHg 62%
    13:00 +35°C° 0.3 mm 2 m/s 758 mmHg 59%
    14:00 +35°C° 2 mm 2 m/s 757 mmHg 62%
    15:00 +34°C° 2 mm 2 m/s 757 mmHg 65%
    16:00 +33°C° 2 mm 1 m/s 757 mmHg 67%
    17:00 +32°C° 0.7 mm 2 m/s 757 mmHg 73%
    18:00 +30°C° 0.7 mm 2 m/s 758 mmHg 78%
    19:00 +29°C° 0.7 mm 2 m/s 758 mmHg 83%
    20:00 +29°C° 0.2 mm 2 m/s 758 mmHg 85%
    21:00 +28°C° 0.2 mm 2 m/s 759 mmHg 86%
    22:00 +28°C° 0.2 mm 2 m/s 759 mmHg 88%
    23:00 +28°C° 0 mm 2 m/s 759 mmHg 88%

    27 Septembre, Vendredi

    Heure Température Précipitation Vent Pression Humidité
    00:00 +28°C° 0 mm 1 m/s 758 mmHg 89%
    01:00 +28°C° 0 mm 1 m/s 758 mmHg 89%
    02:00 +28°C° 0 mm 1 m/s 758 mmHg 89%
    03:00 +25°C° 0 mm 0 m/s 758 mmHg 89%
    04:00 +25°C° 0 mm 0 m/s 758 mmHg 90%
    05:00 +26°C° 0.1 mm 0 m/s 758 mmHg 88%
    06:00 +28°C° 0.1 mm 1 m/s 759 mmHg 87%
    07:00 +28°C° 0.1 mm 1 m/s 759 mmHg 86%
    08:00 +30°C° 0.1 mm 1 m/s 759 mmHg 79%
    09:00 +31°C° 0.1 mm 2 m/s 759 mmHg 73%
    10:00 +34°C° 0.1 mm 2 m/s 759 mmHg 67%
    11:00 +34°C° 0.7 mm 2 m/s 759 mmHg 64%
    12:00 +35°C° 0.7 mm 2 m/s 758 mmHg 61%
    13:00 +35°C° 0.7 mm 2 m/s 757 mmHg 58%
    14:00 +35°C° 1.5 mm 2 m/s 757 mmHg 61%
    15:00 +34°C° 1.5 mm 2 m/s 757 mmHg 64%
    16:00 +34°C° 1.5 mm 3 m/s 756 mmHg 66%
    17:00 +31°C° 0.7 mm 3 m/s 757 mmHg 73%
    18:00 +30°C° 0.7 mm 3 m/s 757 mmHg 79%
    19:00 +29°C° 0.7 mm 3 m/s 757 mmHg 85%
    20:00 +28°C° 0.8 mm 2 m/s 758 mmHg 86%
    21:00 +28°C° 0.8 mm 2 m/s 758 mmHg 88%
    22:00 +28°C° 0.8 mm 2 m/s 759 mmHg 89%
    23:00 +28°C° 1.1 mm 2 m/s 758 mmHg 89%

    28 Septembre, Samedi

    Heure Température Précipitation Vent Pression Humidité
    00:00 +28°C° 1.1 mm 2 m/s 758 mmHg 89%
    01:00 +28°C° 1.1 mm 3 m/s 758 mmHg 89%
    02:00 +27°C° 0.1 mm 3 m/s 757 mmHg 90%
    03:00 +27°C° 0.1 mm 3 m/s 757 mmHg 90%
    04:00 +27°C° 0.1 mm 3 m/s 757 mmHg 91%
    05:00 +27°C° 0 mm 3 m/s 758 mmHg 89%
    06:00 +28°C° 0 mm 3 m/s 758 mmHg 88%
    07:00 +28°C° 0 mm 3 m/s 759 mmHg 86%
    08:00 +30°C° 0 mm 3 m/s 759 mmHg 79%
    09:00 +31°C° 0 mm 3 m/s 759 mmHg 71%
    10:00 +34°C° 0 mm 4 m/s 759 mmHg 64%
    11:00 +34°C° 0.4 mm 4 m/s 759 mmHg 62%
    12:00 +35°C° 0.4 mm 3 m/s 758 mmHg 61%
    13:00 +35°C° 0.4 mm 3 m/s 757 mmHg 59%
    14:00 +35°C° 0.8 mm 3 m/s 757 mmHg 61%
    15:00 +34°C° 0.8 mm 3 m/s 757 mmHg 62%
    16:00 +34°C° 0.8 mm 3 m/s 756 mmHg 64%
    17:00 +33°C° 0.4 mm 3 m/s 757 mmHg 70%
    18:00 +30°C° 0.4 mm 3 m/s 757 mmHg 76%
    19:00 +29°C° 0.4 mm 2 m/s 758 mmHg 83%
    20:00 +28°C° 0.1 mm 2 m/s 758 mmHg 85%
    21:00 +28°C° 0.1 mm 2 m/s 759 mmHg 87%
    22:00 +28°C° 0.1 mm 2 m/s 759 mmHg 89%
    23:00 +28°C° 0.5 mm 2 m/s 759 mmHg 90%

    29 Septembre, Dimanche

    Heure Température Précipitation Vent Pression Humidité
    00:00 +27°C° 0.5 mm 2 m/s 758 mmHg 91%
    01:00 +27°C° 0.5 mm 1 m/s 758 mmHg 92%
    02:00 +27°C° 0.3 mm 1 m/s 758 mmHg 92%
    03:00 +27°C° 0.3 mm 1 m/s 758 mmHg 93%
    04:00 +27°C° 0.3 mm 1 m/s 757 mmHg 93%
    05:00 +27°C° 0 mm 1 m/s 758 mmHg 91%
    06:00 +28°C° 0 mm 1 m/s 758 mmHg 89%
    07:00 +28°C° 0 mm 2 m/s 758 mmHg 87%
    08:00 +30°C° 0 mm 2 m/s 759 mmHg 80%
    09:00 +31°C° 0 mm 2 m/s 759 mmHg 74%
    10:00 +34°C° 0 mm 3 m/s 759 mmHg 67%
    11:00 +34°C° 0.4 mm 3 m/s 758 mmHg 64%
    12:00 +35°C° 0.4 mm 2 m/s 757 mmHg 62%
    13:00 +35°C° 0.4 mm 2 m/s 757 mmHg 59%
    14:00 +35°C° 2.2 mm 2 m/s 756 mmHg 62%
    15:00 +35°C° 2.2 mm 2 m/s 756 mmHg 64%
    16:00 +34°C° 2.2 mm 2 m/s 756 mmHg 66%
    17:00 +32°C° 1.4 mm 1 m/s 756 mmHg 71%
    18:00 +31°C° 1.4 mm 1 m/s 756 mmHg 76%
    19:00 +30°C° 1.4 mm 1 m/s 757 mmHg 81%
    20:00 +29°C° 0.5 mm 2 m/s 757 mmHg 83%
    21:00 +29°C° 0.5 mm 2 m/s 758 mmHg 86%
    22:00 +28°C° 0.5 mm 2 m/s 758 mmHg 88%
    23:00 +28°C° 0 mm 2 m/s 757 mmHg 89%
    Voir plus